owner,sensor,date,latitude,longitude,vertical_datum,sea_water_practical_salinity,qcFlag 
SCCF RECON,ioos:station:SCCF:11:1,2012-11-01T00:00:00Z,26.4679,-82.0631,2.098,32.55,1111122 
SCCF RECON,ioos:station:SCCF:11:1,2012-11-01T01:00:00Z,26.4679,-82.0631,2.11,32.04,1111122 
SCCF RECON,ioos:station:SCCF:11:1,2012-11-01T02:00:00Z,26.4679,-82.0631,2.19,31.73,1111122 
SCCF RECON,ioos:station:SCCF:11:1,2012-11-01T03:00:00Z,26.4679,-82.0631,2.301,31.74,1111122 
SCCF RECON,ioos:station:SCCF:11:1,2012-11-01T04:00:00Z,26.4679,-82.0631,2.42,32.89,1111122 
SCCF RECON,ioos:station:SCCF:11:1,2012-11-01T05:00:00Z,26.4679,-82.0631,2.49,32.88,1111122 
SCCF RECON,ioos:station:SCCF:11:1,2012-11-01T06:00:00Z,26.4679,-82.0631,2.53,32.47,1111122 
SCCF RECON,ioos:station:SCCF:11:1,2012-11-01T07:00:00Z,26.4679,-82.0631,2.515,32.29,1111122 
SCCF RECON,ioos:station:SCCF:11:1,2012-11-01T08:00:00Z,26.4679,-82.0631,2.41,32.26,1111122 
SCCF RECON,ioos:station:SCCF:11:1,2012-11-01T09:00:00Z,26.4679,-82.0631,2.26,32.28,1111122 
SCCF RECON,ioos:station:SCCF:11:1,2012-11-01T10:00:00Z,26.4679,-82.0631,2.131,32.27,1111122 
SCCF RECON,ioos:station:SCCF:11:1,2012-11-01T11:00:00Z,26.4679,-82.0631,2.007,32.13,1111122 
SCCF RECON,ioos:station:SCCF:11:1,2012-11-01T12:00:00Z,26.4679,-82.0631,1.869,32.0,1111122 
SCCF RECON,ioos:station:SCCF:11:1,2012-11-01T13:00:00Z,26.4679,-82.0631,1.769,31.91,1111122 
SCCF RECON,ioos:station:SCCF:11:1,2012-11-01T14:00:00Z,26.4679,-82.0631,1.761,32.29,1111122 
SCCF RECON,ioos:station:SCCF:11:1,2012-11-01T15:00:00Z,26.4679,-82.0631,1.877,32.9,1111122 
SCCF RECON,ioos:station:SCCF:11:1,2012-11-01T16:00:00Z,26.4679,-82.0631,2.05,33.22,1111122 
SCCF RECON,ioos:station:SCCF:11:1,2012-11-01T18:00:00Z,26.4679,-82.0631,2.261,32.37,1111122 
SCCF RECON,ioos:station:SCCF:11:1,2012-11-01T19:00:00Z,26.4679,-82.0631,2.311,32.22,1111122 
SCCF RECON,ioos:station:SCCF:11:1,2012-11-01T20:00:00Z,26.4679,-82.0631,2.322,32.0,1111122 
SCCF RECON,ioos:station:SCCF:11:1,2012-11-01T21:00:00Z,26.4679,-82.0631,2.289,31.5,1111122 
SCCF RECON,ioos:station:SCCF:11:1,2012-11-01T22:00:00Z,26.4679,-82.0631,2.197,32.32,1111122 
SCCF RECON,ioos:station:SCCF:11:1,2012-11-01T23:00:00Z,26.4679,-82.0631,2.14,32.19,1111122 
SCCF RECON,ioos:station:SCCF:11:1,2012-11-02T00:00:00Z,26.4679,-82.0631,2.11,32.09,1111122 
SCCF RECON,ioos:station:SCCF:11:1,2012-11-02T01:00:00Z,26.4679,-82.0631,2.12,30.8,1111122 
SCCF RECON,ioos:station:SCCF:11:1,2012-11-02T02:00:00Z,26.4679,-82.0631,2.162,30.61,1111122 
SCCF RECON,ioos:station:SCCF:11:1,2012-11-02T03:00:00Z,26.4679,-82.0631,2.26,31.55,1111122 
SCCF RECON,ioos:station:SCCF:11:1,2012-11-02T04:00:00Z,26.4679,-82.0631,2.36,31.12,1111122 
SCCF RECON,ioos:station:SCCF:11:1,2012-11-02T05:00:00Z,26.4679,-82.0631,2.43,32.49,1111122 
SCCF RECON,ioos:station:SCCF:11:1,2012-11-02T06:00:00Z,26.4679,-82.0631,2.47,32.48,1111122 
SCCF RECON,ioos:station:SCCF:11:1,2012-11-02T07:00:00Z,26.4679,-82.0631,2.48,32.16,1111122 
SCCF RECON,ioos:station:SCCF:11:1,2012-11-02T08:00:00Z,26.4679,-82.0631,2.42,32.11,1111122 
SCCF RECON,ioos:station:SCCF:11:1,2012-11-02T09:00:00Z,26.4679,-82.0631,2.303,31.53,1111122 
SCCF RECON,ioos:station:SCCF:11:1,2012-11-02T10:00:00Z,26.4679,-82.0631,2.16,31.72,1111122 
SCCF RECON,ioos:station:SCCF:11:1,2012-11-02T11:00:00Z,26.4679,-82.0631,2.021,31.99,1111122 
SCCF RECON,ioos:station:SCCF:11:1,2012-11-02T12:00:00Z,26.4679,-82.0631,1.889,32.1,1111122 
SCCF RECON,ioos:station:SCCF:11:1,2012-11-02T13:00:00Z,26.4679,-82.0631,1.778,32.24,1111122 
SCCF RECON,ioos:station:SCCF:11:1,2012-11-02T14:00:00Z,26.4679,-82.0631,1.71,32.25,1111122 
SCCF RECON,ioos:station:SCCF:11:1,2012-11-02T15:00:00Z,26.4679,-82.0631,1.722,32.04,1111122 
SCCF RECON,ioos:station:SCCF:11:1,2012-11-02T16:00:00Z,26.4679,-82.0631,1.849,32.04,1111122 
SCCF RECON,ioos:station:SCCF:11:1,2012-11-02T17:00:00Z,26.4679,-82.0631,1.99,30.97,1111122 
SCCF RECON,ioos:station:SCCF:11:1,2012-11-02T18:00:00Z,26.4679,-82.0631,2.089,29.24,1111122 
SCCF RECON,ioos:station:SCCF:11:1,2012-11-02T19:00:00Z,26.4679,-82.0631,2.167,28.71,1111122 
SCCF RECON,ioos:station:SCCF:11:1,2012-11-02T20:00:00Z,26.4679,-82.0631,2.23,30.96,1111122 
SCCF RECON,ioos:station:SCCF:11:1,2012-11-02T21:00:00Z,26.4679,-82.0631,2.213,31.04,1111122 
SCCF RECON,ioos:station:SCCF:11:1,2012-11-02T22:00:00Z,26.4679,-82.0631,2.173,29.99,1111122 
SCCF RECON,ioos:station:SCCF:11:1,2012-11-02T23:00:00Z,26.4679,-82.0631,2.116,29.8,1111122 
SCCF RECON,ioos:station:SCCF:11:1,2012-11-03T00:00:00Z,26.4679,-82.0631,2.062,29.51,1111122 
SCCF RECON,ioos:station:SCCF:11:1,2012-11-03T01:00:00Z,26.4679,-82.0631,2.04,28.81,1111122 
SCCF RECON,ioos:station:SCCF:11:1,2012-11-03T02:00:00Z,26.4679,-82.0631,2.04,29.48,1111122 
SCCF RECON,ioos:station:SCCF:11:1,2012-11-03T03:00:00Z,26.4679,-82.0631,2.119,29.31,1111122 
SCCF RECON,ioos:station:SCCF:11:1,2012-11-03T04:00:00Z,26.4679,-82.0631,2.21,29.25,1111122 
SCCF RECON,ioos:station:SCCF:11:1,2012-11-03T05:00:00Z,26.4679,-82.0631,2.3,29.61,1111122 
SCCF RECON,ioos:station:SCCF:11:1,2012-11-03T06:00:00Z,26.4679,-82.0631,2.36,30.75,1111122 
SCCF RECON,ioos:station:SCCF:11:1,2012-11-03T07:00:00Z,26.4679,-82.0631,2.39,30.99,1111122 
SCCF RECON,ioos:station:SCCF:11:1,2012-11-03T08:00:00Z,26.4679,-82.0631,2.387,31.79,1111122 
SCCF RECON,ioos:station:SCCF:11:1,2012-11-03T09:00:00Z,26.4679,-82.0631,2.31,31.36,1111122 
SCCF RECON,ioos:station:SCCF:11:1,2012-11-03T10:00:00Z,26.4679,-82.0631,2.185,30.58,1111122 
SCCF RECON,ioos:station:SCCF:11:1,2012-11-03T11:00:00Z,26.4679,-82.0631,2.06,30.98,1111122 
SCCF RECON,ioos:station:SCCF:11:1,2012-11-03T12:00:00Z,26.4679,-82.0631,1.93,31.6,1111122 
SCCF RECON,ioos:station:SCCF:11:1,2012-11-03T13:00:00Z,26.4679,-82.0631,1.82,31.67,1111122 
SCCF RECON,ioos:station:SCCF:11:1,2012-11-03T14:00:00Z,26.4679,-82.0631,1.73,31.76,1111122 
SCCF RECON,ioos:station:SCCF:11:1,2012-11-03T15:00:00Z,26.4679,-82.0631,1.695,31.7,1111122 
SCCF RECON,ioos:station:SCCF:11:1,2012-11-03T16:00:00Z,26.4679,-82.0631,1.751,32.1,1111122 
SCCF RECON,ioos:station:SCCF:11:1,2012-11-03T17:00:00Z,26.4679,-82.0631,1.89,32.74,1111122 
SCCF RECON,ioos:station:SCCF:11:1,2012-11-03T18:00:00Z,26.4679,-82.0631,2.019,29.56,1111122 
SCCF RECON,ioos:station:SCCF:11:1,2012-11-03T19:00:00Z,26.4679,-82.0631,2.111,29.48,1111122 
SCCF RECON,ioos:station:SCCF:11:1,2012-11-03T20:00:00Z,26.4679,-82.0631,2.17,30.39,1111122 
SCCF RECON,ioos:station:SCCF:11:1,2012-11-03T21:00:00Z,26.4679,-82.0631,2.2,30.83,1111122 
SCCF RECON,ioos:station:SCCF:11:1,2012-11-03T22:00:00Z,26.4679,-82.0631,2.2,31.45,1111122 
SCCF RECON,ioos:station:SCCF:11:1,2012-11-03T23:00:00Z,26.4679,-82.0631,2.15,31.13,1111122 
SCCF RECON,ioos:station:SCCF:11:1,2012-11-04T00:00:00Z,26.4679,-82.0631,2.1,30.11,1111122 
SCCF RECON,ioos:station:SCCF:11:1,2012-11-04T01:00:00Z,26.4679,-82.0631,2.09,28.65,1111122 
SCCF RECON,ioos:station:SCCF:11:1,2012-11-04T02:00:00Z,26.4679,-82.0631,2.09,27.97,1111122 
SCCF RECON,ioos:station:SCCF:11:1,2012-11-04T03:00:00Z,26.4679,-82.0631,2.13,29.48,1111122 
SCCF RECON,ioos:station:SCCF:11:1,2012-11-04T04:00:00Z,26.4679,-82.0631,2.19,31.23,1111122 
SCCF RECON,ioos:station:SCCF:11:1,2012-11-04T05:00:00Z,26.4679,-82.0631,2.26,31.16,1111122 
SCCF RECON,ioos:station:SCCF:11:1,2012-11-04T06:00:00Z,26.4679,-82.0631,2.33,31.51,1111122 
SCCF RECON,ioos:station:SCCF:11:1,2012-11-04T07:00:00Z,26.4679,-82.0631,2.377,31.19,1111122 
SCCF RECON,ioos:station:SCCF:11:1,2012-11-04T08:00:00Z,26.4679,-82.0631,2.39,31.71,1111122 
SCCF RECON,ioos:station:SCCF:11:1,2012-11-04T09:00:00Z,26.4679,-82.0631,2.35,32.08,1111122 
SCCF RECON,ioos:station:SCCF:11:1,2012-11-04T10:00:00Z,26.4679,-82.0631,2.276,31.44,1111122 
SCCF RECON,ioos:station:SCCF:11:1,2012-11-04T11:00:00Z,26.4679,-82.0631,2.17,30.29,1111122 
SCCF RECON,ioos:station:SCCF:11:1,2012-11-04T12:00:00Z,26.4679,-82.0631,2.05,30.2,1111122 
SCCF RECON,ioos:station:SCCF:11:1,2012-11-04T13:00:00Z,26.4679,-82.0631,1.92,31.04,1111122 
SCCF RECON,ioos:station:SCCF:11:1,2012-11-04T14:00:00Z,26.4679,-82.0631,1.82,31.33,1111122 
SCCF RECON,ioos:station:SCCF:11:1,2012-11-04T15:00:00Z,26.4679,-82.0631,1.74,31.46,1111122 
SCCF RECON,ioos:station:SCCF:11:1,2012-11-04T16:00:00Z,26.4679,-82.0631,1.75,30.97,1111122 
SCCF RECON,ioos:station:SCCF:11:1,2012-11-04T17:00:00Z,26.4679,-82.0631,1.843,31.48,1111122 
SCCF RECON,ioos:station:SCCF:11:1,2012-11-04T18:00:00Z,26.4679,-82.0631,1.975,31.6,1111122 
SCCF RECON,ioos:station:SCCF:11:1,2012-11-04T19:00:00Z,26.4679,-82.0631,2.061,29.52,1111122 
SCCF RECON,ioos:station:SCCF:11:1,2012-11-04T20:00:00Z,26.4679,-82.0631,2.12,29.46,1111122 
SCCF RECON,ioos:station:SCCF:11:1,2012-11-04T21:00:00Z,26.4679,-82.0631,2.172,30.38,1111122 
SCCF RECON,ioos:station:SCCF:11:1,2012-11-04T22:00:00Z,26.4679,-82.0631,2.19,30.73,1111122 
SCCF RECON,ioos:station:SCCF:11:1,2012-11-04T23:00:00Z,26.4679,-82.0631,2.18,31.3,1111122 
SCCF RECON,ioos:station:SCCF:11:1,2012-11-05T00:00:00Z,26.4679,-82.0631,2.17,31.38,1111122 
SCCF RECON,ioos:station:SCCF:11:1,2012-11-05T01:00:00Z,26.4679,-82.0631,2.13,31.1,1111122 
SCCF RECON,ioos:station:SCCF:11:1,2012-11-05T02:00:00Z,26.4679,-82.0631,2.11,30.63,1111122 
SCCF RECON,ioos:station:SCCF:11:1,2012-11-05T03:00:00Z,26.4679,-82.0631,2.12,27.78,1111122 
SCCF RECON,ioos:station:SCCF:11:1,2012-11-05T04:00:00Z,26.4679,-82.0631,2.12,27.47,1111122 
SCCF RECON,ioos:station:SCCF:11:1,2012-11-05T05:00:00Z,26.4679,-82.0631,2.16,28.01,1111122 
SCCF RECON,ioos:station:SCCF:11:1,2012-11-05T06:00:00Z,26.4679,-82.0631,2.21,28.9,1111122 
SCCF RECON,ioos:station:SCCF:11:1,2012-11-05T07:00:00Z,26.4679,-82.0631,2.29,30.59,1111122 
SCCF RECON,ioos:station:SCCF:11:1,2012-11-05T08:00:00Z,26.4679,-82.0631,2.32,31.13,1111122 
SCCF RECON,ioos:station:SCCF:11:1,2012-11-05T09:00:00Z,26.4679,-82.0631,2.32,31.79,1111122 
SCCF RECON,ioos:station:SCCF:11:1,2012-11-05T10:00:00Z,26.4679,-82.0631,2.27,31.96,1111122 
SCCF RECON,ioos:station:SCCF:11:1,2012-11-05T11:00:00Z,26.4679,-82.0631,2.201,31.04,1111122 
SCCF RECON,ioos:station:SCCF:11:1,2012-11-05T12:00:00Z,26.4679,-82.0631,2.1,29.86,1111122 
SCCF RECON,ioos:station:SCCF:11:1,2012-11-05T13:00:00Z,26.4679,-82.0631,1.98,29.83,1111122 
SCCF RECON,ioos:station:SCCF:11:1,2012-11-05T14:00:00Z,26.4679,-82.0631,1.88,30.43,1111122 
SCCF RECON,ioos:station:SCCF:11:1,2012-11-05T15:00:00Z,26.4679,-82.0631,1.78,30.5,1111122 
SCCF RECON,ioos:station:SCCF:11:1,2012-11-05T16:00:00Z,26.4679,-82.0631,1.72,31.04,1111122 
SCCF RECON,ioos:station:SCCF:11:1,2012-11-05T17:00:00Z,26.4679,-82.0631,1.72,31.81,1111122 
SCCF RECON,ioos:station:SCCF:11:1,2012-11-05T18:00:00Z,26.4679,-82.0631,1.81,32.11,1111122 
SCCF RECON,ioos:station:SCCF:11:1,2012-11-05T19:00:00Z,26.4679,-82.0631,1.941,31.86,1111122 
SCCF RECON,ioos:station:SCCF:11:1,2012-11-05T20:00:00Z,26.4679,-82.0631,2.027,30.45,1111122 
SCCF RECON,ioos:station:SCCF:11:1,2012-11-05T21:00:00Z,26.4679,-82.0631,2.09,30.11,1111122 
SCCF RECON,ioos:station:SCCF:11:1,2012-11-05T22:00:00Z,26.4679,-82.0631,2.154,29.78,1111122 
SCCF RECON,ioos:station:SCCF:11:1,2012-11-05T23:00:00Z,26.4679,-82.0631,2.18,31.1,1111122 
SCCF RECON,ioos:station:SCCF:11:1,2012-11-06T00:00:00Z,26.4679,-82.0631,2.17,30.93,1111122 
SCCF RECON,ioos:station:SCCF:11:1,2012-11-06T01:00:00Z,26.4679,-82.0631,2.14,31.33,1111122 
SCCF RECON,ioos:station:SCCF:11:1,2012-11-06T02:00:00Z,26.4679,-82.0631,2.11,30.85,1111122 
SCCF RECON,ioos:station:SCCF:11:1,2012-11-06T03:00:00Z,26.4679,-82.0631,2.1,31.13,1111122 
SCCF RECON,ioos:station:SCCF:11:1,2012-11-06T04:00:00Z,26.4679,-82.0631,2.1,30.84,1111122 
SCCF RECON,ioos:station:SCCF:11:1,2012-11-06T05:00:00Z,26.4679,-82.0631,2.11,28.33,1111122 
SCCF RECON,ioos:station:SCCF:11:1,2012-11-06T06:00:00Z,26.4679,-82.0631,2.12,29.89,1111122 
SCCF RECON,ioos:station:SCCF:11:1,2012-11-06T07:00:00Z,26.4679,-82.0631,2.16,30.46,1111122 
SCCF RECON,ioos:station:SCCF:11:1,2012-11-06T08:00:00Z,26.4679,-82.0631,2.24,30.16,1111122 
SCCF RECON,ioos:station:SCCF:11:1,2012-11-06T09:00:00Z,26.4679,-82.0631,2.31,31.42,1111122 
SCCF RECON,ioos:station:SCCF:11:1,2012-11-06T10:00:00Z,26.4679,-82.0631,2.33,31.77,1111122 
SCCF RECON,ioos:station:SCCF:11:1,2012-11-06T11:00:00Z,26.4679,-82.0631,2.32,31.69,1111122 
SCCF RECON,ioos:station:SCCF:11:1,2012-11-06T12:00:00Z,26.4679,-82.0631,2.26,31.39,1111122 
SCCF RECON,ioos:station:SCCF:11:1,2012-11-06T13:00:00Z,26.4679,-82.0631,2.16,30.21,1111122 
SCCF RECON,ioos:station:SCCF:11:1,2012-11-06T14:00:00Z,26.4679,-82.0631,2.06,30.11,1111122 
SCCF RECON,ioos:station:SCCF:11:1,2012-11-06T15:00:00Z,26.4679,-82.0631,1.955,30.33,1111122 
SCCF RECON,ioos:station:SCCF:11:1,2012-11-06T16:00:00Z,26.4679,-82.0631,1.897,30.57,1111122 
SCCF RECON,ioos:station:SCCF:11:1,2012-11-06T17:00:00Z,26.4679,-82.0631,1.841,31.14,1111122 
SCCF RECON,ioos:station:SCCF:11:1,2012-11-06T18:00:00Z,26.4679,-82.0631,1.901,31.76,1111122 
SCCF RECON,ioos:station:SCCF:11:1,2012-11-06T19:00:00Z,26.4679,-82.0631,1.93,31.74,1111122 
SCCF RECON,ioos:station:SCCF:11:1,2012-11-06T20:00:00Z,26.4679,-82.0631,1.98,31.53,1111122 
SCCF RECON,ioos:station:SCCF:11:1,2012-11-06T21:00:00Z,26.4679,-82.0631,2.079,30.45,1111122 
SCCF RECON,ioos:station:SCCF:11:1,2012-11-06T22:00:00Z,26.4679,-82.0631,2.19,29.72,1111122 
SCCF RECON,ioos:station:SCCF:11:1,2012-11-06T23:00:00Z,26.4679,-82.0631,2.24,30.01,1111122 
SCCF RECON,ioos:station:SCCF:11:1,2012-11-07T00:00:00Z,26.4679,-82.0631,2.25,30.33,1111122 
SCCF RECON,ioos:station:SCCF:11:1,2012-11-07T01:00:00Z,26.4679,-82.0631,2.23,30.82,1111122 
SCCF RECON,ioos:station:SCCF:11:1,2012-11-07T02:00:00Z,26.4679,-82.0631,2.18,30.51,1111122 
SCCF RECON,ioos:station:SCCF:11:1,2012-11-07T03:00:00Z,26.4679,-82.0631,2.154,30.17,1111122 
SCCF RECON,ioos:station:SCCF:11:1,2012-11-07T04:00:00Z,26.4679,-82.0631,2.12,29.68,1111122 
SCCF RECON,ioos:station:SCCF:11:1,2012-11-07T05:00:00Z,26.4679,-82.0631,2.098,29.68,1111122 
SCCF RECON,ioos:station:SCCF:11:1,2012-11-07T06:00:00Z,26.4679,-82.0631,2.0,30.53,1111122 
SCCF RECON,ioos:station:SCCF:11:1,2012-11-07T07:00:00Z,26.4679,-82.0631,1.971,29.59,1111122 
SCCF RECON,ioos:station:SCCF:11:1,2012-11-07T08:00:00Z,26.4679,-82.0631,2.02,29.51,1111122 
SCCF RECON,ioos:station:SCCF:11:1,2012-11-07T09:00:00Z,26.4679,-82.0631,2.12,29.39,1111122 
SCCF RECON,ioos:station:SCCF:11:1,2012-11-07T10:00:00Z,26.4679,-82.0631,2.191,29.21,1111122 
SCCF RECON,ioos:station:SCCF:11:1,2012-11-07T11:00:00Z,26.4679,-82.0631,2.211,30.17,1111122 
SCCF RECON,ioos:station:SCCF:11:1,2012-11-07T12:00:00Z,26.4679,-82.0631,2.167,29.33,1111122 
SCCF RECON,ioos:station:SCCF:11:1,2012-11-07T13:00:00Z,26.4679,-82.0631,2.09,29.66,1111122 
SCCF RECON,ioos:station:SCCF:11:1,2012-11-07T14:00:00Z,26.4679,-82.0631,2.008,30.09,1111122 
SCCF RECON,ioos:station:SCCF:11:1,2012-11-07T15:00:00Z,26.4679,-82.0631,1.904,30.46,1111122 
SCCF RECON,ioos:station:SCCF:11:1,2012-11-07T16:00:00Z,26.4679,-82.0631,1.808,30.59,1111122 
SCCF RECON,ioos:station:SCCF:11:1,2012-11-07T17:00:00Z,26.4679,-82.0631,1.74,30.54,1111122 
SCCF RECON,ioos:station:SCCF:11:1,2012-11-07T18:00:00Z,26.4679,-82.0631,1.72,30.51,1111122 
SCCF RECON,ioos:station:SCCF:11:1,2012-11-07T19:00:00Z,26.4679,-82.0631,1.7,30.19,1111122 
SCCF RECON,ioos:station:SCCF:11:1,2012-11-07T20:00:00Z,26.4679,-82.0631,1.749,30.37,1111122 
SCCF RECON,ioos:station:SCCF:11:1,2012-11-07T21:00:00Z,26.4679,-82.0631,1.832,30.72,1111122 
SCCF RECON,ioos:station:SCCF:11:1,2012-11-07T22:00:00Z,26.4679,-82.0631,1.94,31.32,1111122 
SCCF RECON,ioos:station:SCCF:11:1,2012-11-07T23:00:00Z,26.4679,-82.0631,2.014,31.59,1111122 
SCCF RECON,ioos:station:SCCF:11:1,2012-11-08T00:00:00Z,26.4679,-82.0631,2.109,31.69,1111122 
SCCF RECON,ioos:station:SCCF:11:1,2012-11-08T01:00:00Z,26.4679,-82.0631,2.17,32.16,1111122 
SCCF RECON,ioos:station:SCCF:11:1,2012-11-08T02:00:00Z,26.4679,-82.0631,2.21,32.31,1111122 
SCCF RECON,ioos:station:SCCF:11:1,2012-11-08T03:00:00Z,26.4679,-82.0631,2.16,31.89,1111122 
SCCF RECON,ioos:station:SCCF:11:1,2012-11-08T04:00:00Z,26.4679,-82.0631,2.06,31.21,1111122 
SCCF RECON,ioos:station:SCCF:11:1,2012-11-08T05:00:00Z,26.4679,-82.0631,1.997,31.05,1111122 
SCCF RECON,ioos:station:SCCF:11:1,2012-11-08T06:00:00Z,26.4679,-82.0631,1.96,32.12,1111122 
SCCF RECON,ioos:station:SCCF:11:1,2012-11-08T07:00:00Z,26.4679,-82.0631,1.94,31.52,1111122 
SCCF RECON,ioos:station:SCCF:11:1,2012-11-08T08:00:00Z,26.4679,-82.0631,1.97,32.46,1111122 
SCCF RECON,ioos:station:SCCF:11:1,2012-11-08T09:00:00Z,26.4679,-82.0631,2.05,32.31,1111122 
SCCF RECON,ioos:station:SCCF:11:1,2012-11-08T10:00:00Z,26.4679,-82.0631,2.05,32.37,1111122 
SCCF RECON,ioos:station:SCCF:11:1,2012-11-08T11:00:00Z,26.4679,-82.0631,2.09,32.85,1111122 
SCCF RECON,ioos:station:SCCF:11:1,2012-11-08T12:00:00Z,26.4679,-82.0631,2.15,32.85,1111122 
SCCF RECON,ioos:station:SCCF:11:1,2012-11-08T13:00:00Z,26.4679,-82.0631,2.15,32.97,1111122 
SCCF RECON,ioos:station:SCCF:11:1,2012-11-08T14:00:00Z,26.4679,-82.0631,2.14,32.58,1111122 
SCCF RECON,ioos:station:SCCF:11:1,2012-11-08T15:00:00Z,26.4679,-82.0631,2.08,32.38,1111122 
SCCF RECON,ioos:station:SCCF:11:1,2012-11-08T16:00:00Z,26.4679,-82.0631,1.99,31.77,1111122 
SCCF RECON,ioos:station:SCCF:11:1,2012-11-08T17:00:00Z,26.4679,-82.0631,1.887,31.25,1111122 
SCCF RECON,ioos:station:SCCF:11:1,2012-11-08T18:00:00Z,26.4679,-82.0631,1.788,31.14,1111122 
SCCF RECON,ioos:station:SCCF:11:1,2012-11-08T19:00:00Z,26.4679,-82.0631,1.722,31.7,1111122 
SCCF RECON,ioos:station:SCCF:11:1,2012-11-08T20:00:00Z,26.4679,-82.0631,1.713,32.5,1111122 
SCCF RECON,ioos:station:SCCF:11:1,2012-11-08T21:00:00Z,26.4679,-82.0631,1.776,33.22,1111122 
SCCF RECON,ioos:station:SCCF:11:1,2012-11-08T22:00:00Z,26.4679,-82.0631,1.891,34.03,1111122 
SCCF RECON,ioos:station:SCCF:11:1,2012-11-08T23:00:00Z,26.4679,-82.0631,2.02,33.84,1111122 
SCCF RECON,ioos:station:SCCF:11:1,2012-11-09T00:00:00Z,26.4679,-82.0631,2.13,33.39,1111122 
SCCF RECON,ioos:station:SCCF:11:1,2012-11-09T01:00:00Z,26.4679,-82.0631,2.2,31.96,1111122 
SCCF RECON,ioos:station:SCCF:11:1,2012-11-09T02:00:00Z,26.4679,-82.0631,2.21,32.07,1111122 
SCCF RECON,ioos:station:SCCF:11:1,2012-11-09T03:00:00Z,26.4679,-82.0631,2.19,29.66,1111122 
SCCF RECON,ioos:station:SCCF:11:1,2012-11-09T04:00:00Z,26.4679,-82.0631,2.11,32.17,1111122 
SCCF RECON,ioos:station:SCCF:11:1,2012-11-09T05:00:00Z,26.4679,-82.0631,2.0,32.02,1111122 
SCCF RECON,ioos:station:SCCF:11:1,2012-11-09T06:00:00Z,26.4679,-82.0631,1.9,32.14,1111122 
SCCF RECON,ioos:station:SCCF:11:1,2012-11-09T07:00:00Z,26.4679,-82.0631,1.793,32.12,1111122 
SCCF RECON,ioos:station:SCCF:11:1,2012-11-09T08:00:00Z,26.4679,-82.0631,1.73,32.01,1111122 
SCCF RECON,ioos:station:SCCF:11:1,2012-11-09T09:00:00Z,26.4679,-82.0631,1.734,31.61,1111122 
SCCF RECON,ioos:station:SCCF:11:1,2012-11-09T10:00:00Z,26.4679,-82.0631,1.825,31.87,1111122 
SCCF RECON,ioos:station:SCCF:11:1,2012-11-09T11:00:00Z,26.4679,-82.0631,1.97,32.17,1111122 
SCCF RECON,ioos:station:SCCF:11:1,2012-11-09T12:00:00Z,26.4679,-82.0631,2.061,32.11,1111122 
SCCF RECON,ioos:station:SCCF:11:1,2012-11-09T13:00:00Z,26.4679,-82.0631,2.129,30.76,1111122 
SCCF RECON,ioos:station:SCCF:11:1,2012-11-09T14:00:00Z,26.4679,-82.0631,2.17,31.13,1111122 
SCCF RECON,ioos:station:SCCF:11:1,2012-11-09T15:00:00Z,26.4679,-82.0631,2.113,31.81,1111122 
SCCF RECON,ioos:station:SCCF:11:1,2012-11-09T16:00:00Z,26.4679,-82.0631,2.03,31.98,1111122 
SCCF RECON,ioos:station:SCCF:11:1,2012-11-09T17:00:00Z,26.4679,-82.0631,1.935,32.08,1111122 
SCCF RECON,ioos:station:SCCF:11:1,2012-11-09T18:00:00Z,26.4679,-82.0631,1.849,32.01,1111122 
SCCF RECON,ioos:station:SCCF:11:1,2012-11-09T19:00:00Z,26.4679,-82.0631,1.77,31.99,1111122 
SCCF RECON,ioos:station:SCCF:11:1,2012-11-09T20:00:00Z,26.4679,-82.0631,1.72,31.95,1111122 
SCCF RECON,ioos:station:SCCF:11:1,2012-11-09T21:00:00Z,26.4679,-82.0631,1.73,31.98,1111122 
SCCF RECON,ioos:station:SCCF:11:1,2012-11-09T22:00:00Z,26.4679,-82.0631,1.83,32.32,1111122 
SCCF RECON,ioos:station:SCCF:11:1,2012-11-09T23:00:00Z,26.4679,-82.0631,1.98,31.23,1111122 
SCCF RECON,ioos:station:SCCF:11:1,2012-11-10T00:00:00Z,26.4679,-82.0631,2.09,30.01,1111122 
SCCF RECON,ioos:station:SCCF:11:1,2012-11-10T01:00:00Z,26.4679,-82.0631,2.18,29.79,1111122 
SCCF RECON,ioos:station:SCCF:11:1,2012-11-10T02:00:00Z,26.4679,-82.0631,2.25,30.53,1111122 
SCCF RECON,ioos:station:SCCF:11:1,2012-11-10T03:00:00Z,26.4679,-82.0631,2.27,31.74,1111122 
SCCF RECON,ioos:station:SCCF:11:1,2012-11-10T04:00:00Z,26.4679,-82.0631,2.21,31.67,1111122 
SCCF RECON,ioos:station:SCCF:11:1,2012-11-10T05:00:00Z,26.4679,-82.0631,2.07,30.85,1111122 
SCCF RECON,ioos:station:SCCF:11:1,2012-11-10T06:00:00Z,26.4679,-82.0631,1.929,31.43,1111122 
SCCF RECON,ioos:station:SCCF:11:1,2012-11-10T07:00:00Z,26.4679,-82.0631,1.82,31.62,1111122 
SCCF RECON,ioos:station:SCCF:11:1,2012-11-10T08:00:00Z,26.4679,-82.0631,1.749,31.66,1111122 
SCCF RECON,ioos:station:SCCF:11:1,2012-11-10T09:00:00Z,26.4679,-82.0631,1.72,31.72,1111122 
SCCF RECON,ioos:station:SCCF:11:1,2012-11-10T10:00:00Z,26.4679,-82.0631,1.76,31.78,1111122 
SCCF RECON,ioos:station:SCCF:11:1,2012-11-10T11:00:00Z,26.4679,-82.0631,1.88,31.53,1111122 
SCCF RECON,ioos:station:SCCF:11:1,2012-11-10T12:00:00Z,26.4679,-82.0631,2.028,31.4,1111122 
SCCF RECON,ioos:station:SCCF:11:1,2012-11-10T13:00:00Z,26.4679,-82.0631,2.13,30.15,1111122 
SCCF RECON,ioos:station:SCCF:11:1,2012-11-10T14:00:00Z,26.4679,-82.0631,2.22,30.67,1111122 
SCCF RECON,ioos:station:SCCF:11:1,2012-11-10T15:00:00Z,26.4679,-82.0631,2.27,30.2,1111122 
SCCF RECON,ioos:station:SCCF:11:1,2012-11-10T16:00:00Z,26.4679,-82.0631,2.259,30.35,1111122 
SCCF RECON,ioos:station:SCCF:11:1,2012-11-10T17:00:00Z,26.4679,-82.0631,2.16,30.78,1111122 
SCCF RECON,ioos:station:SCCF:11:1,2012-11-10T18:00:00Z,26.4679,-82.0631,2.029,31.05,1111122 
SCCF RECON,ioos:station:SCCF:11:1,2012-11-10T19:00:00Z,26.4679,-82.0631,1.921,31.36,1111122 
SCCF RECON,ioos:station:SCCF:11:1,2012-11-10T20:00:00Z,26.4679,-82.0631,1.85,31.47,1111122 
SCCF RECON,ioos:station:SCCF:11:1,2012-11-10T21:00:00Z,26.4679,-82.0631,1.843,31.49,1111122 
SCCF RECON,ioos:station:SCCF:11:1,2012-11-10T22:00:00Z,26.4679,-82.0631,1.913,31.24,1111122 
SCCF RECON,ioos:station:SCCF:11:1,2012-11-10T23:00:00Z,26.4679,-82.0631,2.03,30.87,1111122 
SCCF RECON,ioos:station:SCCF:11:1,2012-11-11T00:00:00Z,26.4679,-82.0631,2.166,30.42,1111122 
SCCF RECON,ioos:station:SCCF:11:1,2012-11-11T01:00:00Z,26.4679,-82.0631,2.247,30.38,1111122 
SCCF RECON,ioos:station:SCCF:11:1,2012-11-11T02:00:00Z,26.4679,-82.0631,2.31,30.68,1111122 
SCCF RECON,ioos:station:SCCF:11:1,2012-11-11T03:00:00Z,26.4679,-82.0631,2.36,30.87,1111122 
SCCF RECON,ioos:station:SCCF:11:1,2012-11-11T04:00:00Z,26.4679,-82.0631,2.33,30.8,1111122 
SCCF RECON,ioos:station:SCCF:11:1,2012-11-11T05:00:00Z,26.4679,-82.0631,2.186,30.83,1111122 
SCCF RECON,ioos:station:SCCF:11:1,2012-11-11T06:00:00Z,26.4679,-82.0631,2.037,31.17,1111122 
SCCF RECON,ioos:station:SCCF:11:1,2012-11-11T07:00:00Z,26.4679,-82.0631,1.89,31.36,1111122 
SCCF RECON,ioos:station:SCCF:11:1,2012-11-11T08:00:00Z,26.4679,-82.0631,1.77,31.47,1111122 
SCCF RECON,ioos:station:SCCF:11:1,2012-11-11T09:00:00Z,26.4679,-82.0631,1.655,31.51,1111122 
SCCF RECON,ioos:station:SCCF:11:1,2012-11-11T10:00:00Z,26.4679,-82.0631,1.615,31.45,1111122 
SCCF RECON,ioos:station:SCCF:11:1,2012-11-11T11:00:00Z,26.4679,-82.0631,1.71,31.35,1111122 
SCCF RECON,ioos:station:SCCF:11:1,2012-11-11T12:00:00Z,26.4679,-82.0631,1.881,31.34,1111122 
SCCF RECON,ioos:station:SCCF:11:1,2012-11-11T13:00:00Z,26.4679,-82.0631,2.03,29.94,1111122 
SCCF RECON,ioos:station:SCCF:11:1,2012-11-11T14:00:00Z,26.4679,-82.0631,2.147,30.79,1111122 
SCCF RECON,ioos:station:SCCF:11:1,2012-11-11T15:00:00Z,26.4679,-82.0631,2.25,30.27,1111122 
SCCF RECON,ioos:station:SCCF:11:1,2012-11-11T16:00:00Z,26.4679,-82.0631,2.319,30.35,1111122 
SCCF RECON,ioos:station:SCCF:11:1,2012-11-11T17:00:00Z,26.4679,-82.0631,2.318,30.82,1111122 
SCCF RECON,ioos:station:SCCF:11:1,2012-11-11T18:00:00Z,26.4679,-82.0631,2.245,31.38,1111122 
SCCF RECON,ioos:station:SCCF:11:1,2012-11-11T19:00:00Z,26.4679,-82.0631,2.12,30.61,1111122 